GW7182 Weather Reports


time (UTC)temp
C
wind
direction
speed
KPH
gust
KPH
rain 1hr
cm
rain 24hr
cm
rain mn
cm
humidity
%
barometer
mb
20260906114027 21 265 1.6 3.2 0.00 0.00 0.00 87 1013.8
20260906113020 21 327 1.6 3.2 0.00 0.00 0.00 88 1013.7
20260906112055 21 334 1.6 4.8 0.00 0.00 0.00 88 1013.6
20260906111028 21 224 0.0 3.2 0.00 0.00 0.00 88 1013.8
20260906110022 22 203 1.6 3.2 0.00 0.00 0.00 87 1013.8
20260906105016 21 240 1.6 3.2 0.00 0.00 0.00 86 1013.9
20260906104030 21 241 1.6 3.2 0.00 0.00 0.00 87 1013.6
20260906103024 21 277 0.0 3.2 0.00 0.00 0.00 88 1013.7
20260906102018 21 337 3.2 6.4 0.00 0.00 0.00 89 1013.9
20260906101032 21 270 1.6 6.4 0.00 0.00 0.00 90 1013.8
20260906100026 21 318 1.6 4.8 0.00 0.00 0.00 90 1013.7
20260906095040 21 330 1.6 4.8 0.00 0.00 0.00 90 1013.8
20260906094053 21 329 1.6 4.8 0.00 0.00 0.00 90 1013.7
20260906093048 21 249 1.6 4.8 0.00 0.00 0.00 90 1013.8
20260906092041 21 350 1.6 4.8 0.00 0.00 0.00 90 1013.8
20260906091055 21 330 1.6 6.4 0.00 0.00 0.00 91 1013.9
20260906090049 21 305 1.6 4.8 0.00 0.00 0.00 90 1013.9
20260906085023 21 283 1.6 4.8 0.00 0.00 0.00 89 1013.8
20260906084016 21 8 1.6 4.8 0.00 0.00 0.00 89 1013.7
20260906083029 21 151 1.6 3.2 0.00 0.00 0.00 88 1013.6
20260906082022 21 2 3.2 6.4 0.00 0.00 0.00 90 1013.6
20260906081036 21 267 1.6 4.8 0.00 0.00 0.00 90 1013.5
20260906080030 21 186 3.2 8.0 0.00 0.00 0.00 90 1013.5
20260906075024 21 172 4.8 8.0 0.00 0.00 0.00 90 1013.5
20260906074018 21 335 3.2 8.0 0.00 0.00 0.00 88 1013.2
20260906073031 21 338 3.2 8.0 0.00 0.00 0.00 88 1013.2
20260906072024 21 253 3.2 8.0 0.00 0.00 0.00 86 1013.5
20260906071019 22 204 1.6 9.7 0.00 0.00 0.00 84 1013.6
20260906070034 22 297 1.6 6.4 0.00 0.00 0.00 80 1013.5
20260906065049 22 342 3.2 8.0 0.00 0.00 0.00 80 1013.6
20260906064043 22 290 3.2 6.4 0.00 0.00 0.00 81 1013.5
20260906063017 22 328 1.6 8.0 0.00 0.00 0.00 81 1013.6
20260906062050 23 178 1.6 6.4 0.00 0.00 0.00 80 1013.7
20260906061025 22 0.0 0.0 0.00 0.00 0.00 81 1013.9
20260906060018 22 0.0 1.6 0.00 0.00 0.00 81 1013.9
20260906055032 22 0.0 0.0 0.00 0.00 0.00 82 1014.2
20260906054025 22 184 0.0 1.6 0.00 0.00 0.00 83 1014.2
20260906053019 22 0.0 1.6 0.00 0.00 0.00 85 1014.3
20260906052054 22 0.0 1.6 0.00 0.00 0.00 85 1014.5
20260906051028 22 0.0 0.0 0.00 0.00 0.00 86 1014.3
20260906050022 22 318 0.0 1.6 0.00 0.00 0.00 86 1014.5
20260906045016 22 0.0 0.0 0.00 0.00 0.00 85 1014.6
20260906044029 22 0.0 0.0 0.00 0.00 0.00 85 1014.7
20260906043024 22 0.0 0.0 0.00 0.00 0.00 85 1014.8
20260906042018 22 0.0 0.0 0.00 0.00 0.00 85 1014.9
20260906041030 22 0.0 1.6 0.00 0.00 0.00 85 1015.0
20260906040024 22 277 0.0 1.6 0.00 0.00 0.00 84 1014.9
20260906035019 22 317 0.0 1.6 0.00 0.00 0.00 85 1014.8
20260906034033 22 165 1.6 3.2 0.00 0.00 0.00 85 1014.7
20260906033027 23 0.0 0.0 0.00 0.00 0.00 85 1014.9
20260906032042 23 190 0.0 1.6 0.00 0.00 0.00 85 1014.7
20260906031017 23 0.0 0.0 0.00 0.00 0.00 84 1014.8
20260906030031 23 0.0 1.6 0.00 0.00 0.00 83 1014.8
20260906025044 23 1 1.6 3.2 0.00 0.00 0.00 84 1014.9
20260906024039 23 6 1.6 4.8 0.00 0.00 0.00 85 1014.9
20260906023034 23 359 0.0 3.2 0.00 0.00 0.00 87 1014.9
20260906022029 23 172 3.2 6.4 0.00 0.00 0.00 88 1014.9
20260906021023 24 172 1.6 3.2 0.00 0.00 0.00 86 1014.9
20260906020017 23 0.0 0.0 0.00 0.00 0.00 87 1014.9
20260906015030 23 0.0 1.6 0.00 0.00 0.00 87 1014.6
20260906014046 23 314 0.0 1.6 0.00 0.00 0.00 87 1014.4
20260906013021 23 0.0 1.6 0.00 0.00 0.00 86 1014.2
20260906012035 24 167 0.0 1.6 0.00 0.00 0.00 84 1013.9
20260906011030 24 0.0 0.0 0.00 0.00 0.00 84 1013.5
20260906010024 24 343 1.6 3.2 0.00 0.00 0.00 83 1013.2
20260906005016 25 169 1.6 3.2 0.00 0.00 0.00 82 1013.1
20260906004031 24 0.0 0.0 0.00 0.00 0.00 84 1013.2
20260906003025 25 0.0 0.0 0.00 0.00 0.00 83 1013.1
20260906002019 25 0.0 1.6 0.00 0.00 0.00 82 1013.0
20260906001052 25 0.0 0.0 0.00 0.00 0.00 82 1012.9
20260906000026 25 0.0 0.0 0.00 0.00 0.00 80 1013.1
20260905235018 26 342 0.0 3.2 0.00 0.00 0.00 79 1013.1
20260905234032 26 0.0 0.0 0.00 0.00 0.00 78 1013.1
20260905233025 26 331 0.0 3.2 0.00 0.00 0.00 79 1013.2
20260905232038 26 0.0 1.6 0.00 0.00 0.00 78 1013.4
20260905231052 25 328 1.6 4.8 0.00 0.00 0.00 80 1013.5
20260905230026 25 344 1.6 4.8 0.00 0.00 0.00 80 1013.4
20260905225020 25 181 0.0 3.2 0.00 0.00 0.00 80 1013.5
20260905224016 26 180 1.6 3.2 0.00 0.00 0.00 78 1013.3
20260905223030 25 189 1.6 3.2 0.00 0.00 0.00 79 1013.3
20260905222024 25 0.0 0.0 0.00 0.00 0.00 79 1013.5
20260905221018 25 0.0 1.6 0.00 0.00 0.00 78 1013.3
20260905220033 25 137 0.0 1.6 0.00 0.00 0.00 77 1013.1
20260905215026 25 285 0.0 3.2 0.00 0.00 0.00 77 1013.3
20260905214021 26 356 0.0 3.2 0.00 0.00 0.00 76 1013.3
20260905213015 27 71 1.6 3.2 0.00 0.00 0.00 70 1013.1
20260905212031 28 10 3.2 6.4 0.00 0.00 0.00 65 1013.6
20260905211024 31 340 3.2 8.0 0.00 0.00 0.00 58 1013.8
20260905210039 32 238 0.0 1.6 0.00 0.00 0.00 52 1013.3
20260905205034 33 251 0.0 4.8 0.00 0.00 0.00 49 1013.4
20260905204028 32 248 1.6 6.4 0.00 0.00 0.00 47 1013.1
20260905203023 32 312 1.6 4.8 0.00 0.00 0.00 48 1013.1
20260905202019 32 328 0.0 3.2 0.00 0.00 0.00 48 1013.4
20260905201033 32 245 1.6 6.4 0.00 0.00 0.00 48 1013.3
20260905200028 32 231 1.6 4.8 0.00 0.00 0.00 51 1013.4
20260905195022 32 236 0.0 4.8 0.00 0.00 0.00 51 1013.3
20260905194016 32 241 1.6 6.4 0.00 0.00 0.00 50 1013.3
20260905193031 33 224 3.2 8.0 0.00 0.00 0.00 52 1013.5
20260905192046 33 216 3.2 4.8 0.00 0.00 0.00 51 1013.9
20260905191021 33 231 1.6 6.4 0.00 0.00 0.00 52 1014.2
20260905190016 33 88 1.6 3.2 0.00 0.00 0.00 53 1014.0
20260905185031 32 241 1.6 6.4 0.00 0.00 0.00 53 1014.0
20260905184026 32 353 1.6 3.2 0.00 0.00 0.00 54 1014.1
20260905183040 33 242 1.6 6.4 0.00 0.00 0.00 53 1014.2
20260905182053 32 248 1.6 6.4 0.00 0.00 0.00 53 1014.4
20260905181028 32 280 3.2 8.0 0.00 0.00 0.00 54 1014.7
20260905180023 32 340 1.6 4.8 0.00 0.00 0.00 55 1014.8
20260905175016 31 232 1.6 6.4 0.00 0.00 0.00 54 1014.8
20260905174030 31 186 3.2 6.4 0.00 0.00 0.00 55 1014.9
20260905173026 32 341 1.6 3.2 0.00 0.00 0.00 56 1015.1
20260905172020 31 253 1.6 3.2 0.00 0.00 0.00 55 1015.0
20260905171035 31 269 1.6 3.2 0.00 0.00 0.00 60 1015.1
20260905170030 31 280 3.2 8.0 0.00 0.00 0.00 59 1015.3
20260905165024 30 272 3.2 4.8 0.00 0.00 0.00 61 1015.3
20260905164019 31 267 4.8 9.7 0.00 0.00 0.00 61 1015.5
20260905163034 30 271 3.2 4.8 0.00 0.00 0.00 61 1015.7
20260905162029 30 251 3.2 8.0 0.00 0.00 0.00 63 1015.9
20260905161044 30 275 3.2 4.8 0.00 0.00 0.00 65 1015.9
20260905160018 30 271 1.6 8.0 0.00 0.00 0.00 68 1015.9
20260905155033 30 279 1.6 4.8 0.00 0.00 0.00 69 1016.0
20260905154047 29 295 1.6 4.8 0.00 0.00 0.00 70 1016.1
20260905153042 28 333 1.6 4.8 0.00 0.00 0.00 69 1016.2
20260905152037 28 323 3.2 8.0 0.00 0.00 0.00 72 1016.2
20260905151032 28 270 3.2 8.0 0.00 0.00 0.00 72 1016.2
20260905150028 28 293 1.6 4.8 0.00 0.00 0.00 74 1016.2
20260905145022 27 273 3.2 6.4 0.00 0.00 0.00 74 1016.3
20260905144016 27 253 1.6 6.4 0.00 0.00 0.00 76 1016.4
20260905143030 26 275 1.6 4.8 0.00 0.00 0.00 76 1016.4
20260905142025 26 287 1.6 4.8 0.00 0.00 0.00 78 1016.4
20260905141016 26 291 1.6 4.8 0.00 0.00 0.00 77 1016.4
20260905140031 26 269 1.6 4.8 0.00 0.00 0.00 78 1016.6
20260905135026 25 250 1.6 6.4 0.00 0.00 0.00 78 1016.7
20260905134019 25 230 1.6 4.8 0.00 0.00 0.00 78 1016.7
20260905133054 25 252 3.2 6.4 0.00 0.00 0.00 79 1016.7
20260905132028 25 303 1.6 4.8 0.00 0.00 0.00 79 1016.7
20260905131041 25 303 1.6 3.2 0.00 0.00 0.00 81 1016.8
20260905130035 24 322 1.6 3.2 0.00 0.00 0.00 81 1016.7
20260905125029 24 150 0.0 3.2 0.00 0.00 0.00 81 1016.7
20260905124025 24 346 1.6 3.2 0.00 0.00 0.00 82 1016.7
20260905123020 24 303 0.0 4.8 0.00 0.00 0.00 82 1016.7
20260905122034 23 329 0.0 3.2 0.00 0.00 0.00 82 1016.7
20260905121028 23 5 0.0 3.2 0.00 0.00 0.00 82 1016.5
20260905120021 23 299 0.0 3.2 0.00 0.00 0.00 82 1016.3
20260905115036 23 226 0.0 3.2 0.00 0.00 0.00 82 1016.3